Year,Month,Day,Hour,Minute,Value (Times are PST for temperature in C)
2017,06,15,00,00,12.50
2017,06,15,00,01,12.50
2017,06,15,00,02,12.50
2017,06,15,00,03,12.50
2017,06,15,00,04,12.50
2017,06,15,00,05,12.50
2017,06,15,00,06,12.50
2017,06,15,00,07,12.50
2017,06,15,00,08,12.50
2017,06,15,00,09,12.50
2017,06,15,00,10,12.60
2017,06,15,00,11,12.50
2017,06,15,00,12,12.60
2017,06,15,00,13,12.60
2017,06,15,00,14,12.60
2017,06,15,00,15,12.60
2017,06,15,00,16,12.60
2017,06,15,00,17,12.60
2017,06,15,00,18,12.60
2017,06,15,00,19,12.60
2017,06,15,00,20,12.60
2017,06,15,00,21,12.60
2017,06,15,00,22,12.60
2017,06,15,00,23,12.60
2017,06,15,00,24,12.60
2017,06,15,00,25,12.60
2017,06,15,00,26,12.60
2017,06,15,00,27,12.60
2017,06,15,00,28,12.60
2017,06,15,00,29,12.60
2017,06,15,00,30,12.60
2017,06,15,00,31,12.60
2017,06,15,00,32,12.60
2017,06,15,00,33,12.60
2017,06,15,00,34,12.60
2017,06,15,00,35,12.60
2017,06,15,00,36,12.60
2017,06,15,00,37,12.70
2017,06,15,00,38,12.70
2017,06,15,00,39,12.70
2017,06,15,00,40,12.70
2017,06,15,00,41,12.80
2017,06,15,00,42,12.80
2017,06,15,00,43,12.80
2017,06,15,00,44,12.80
2017,06,15,00,45,12.80
2017,06,15,00,46,12.80
2017,06,15,00,47,12.80
2017,06,15,00,48,12.80
2017,06,15,00,49,12.80
2017,06,15,00,50,12.80
2017,06,15,00,51,12.80
2017,06,15,00,52,12.80
2017,06,15,00,53,12.80
2017,06,15,00,54,12.80
2017,06,15,00,55,12.80
2017,06,15,00,56,12.70
2017,06,15,00,57,12.70
2017,06,15,00,58,12.70
2017,06,15,00,59,12.70
2017,06,15,01,00,12.70
2017,06,15,01,01,12.70
2017,06,15,01,02,12.70
2017,06,15,01,03,12.70
2017,06,15,01,04,12.70
2017,06,15,01,05,12.70
2017,06,15,01,06,12.70
2017,06,15,01,07,12.60
2017,06,15,01,08,12.60
2017,06,15,01,09,12.60
2017,06,15,01,10,12.60
2017,06,15,01,11,12.60
2017,06,15,01,12,12.60
2017,06,15,01,13,12.60
2017,06,15,01,14,12.60
2017,06,15,01,15,12.60
2017,06,15,01,16,12.60
2017,06,15,01,17,12.60
2017,06,15,01,18,12.60
2017,06,15,01,19,12.60
2017,06,15,01,20,12.60
2017,06,15,01,21,12.60
2017,06,15,01,22,12.60
2017,06,15,01,23,12.60
2017,06,15,01,24,12.60
2017,06,15,01,25,12.60
2017,06,15,01,26,12.60
2017,06,15,01,27,12.60
2017,06,15,01,28,12.60
2017,06,15,01,29,12.60
2017,06,15,01,30,12.60
2017,06,15,01,31,12.60
2017,06,15,01,32,12.60
2017,06,15,01,33,12.60
2017,06,15,01,34,12.60
2017,06,15,01,35,12.60
2017,06,15,01,36,12.60
2017,06,15,01,37,12.60
2017,06,15,01,38,12.60
2017,06,15,01,39,12.60
2017,06,15,01,40,12.50
2017,06,15,01,41,12.50
2017,06,15,01,42,12.50
2017,06,15,01,43,12.50
2017,06,15,01,44,12.50
2017,06,15,01,45,12.50
2017,06,15,01,46,12.50
2017,06,15,01,47,12.50
2017,06,15,01,48,12.40
2017,06,15,01,49,12.40
2017,06,15,01,50,12.40
2017,06,15,01,51,12.40
2017,06,15,01,52,12.40
2017,06,15,01,53,12.40
2017,06,15,01,54,12.40
2017,06,15,01,55,12.40
2017,06,15,01,56,12.40
2017,06,15,01,57,12.40
2017,06,15,01,58,12.40
2017,06,15,01,59,12.40
2017,06,15,02,00,12.40
2017,06,15,02,01,12.40
2017,06,15,02,02,12.30
2017,06,15,02,03,12.30
2017,06,15,02,04,12.30
2017,06,15,02,05,12.30
2017,06,15,02,06,12.30
2017,06,15,02,07,12.30
2017,06,15,02,08,12.30
2017,06,15,02,09,12.30
2017,06,15,02,10,12.30
2017,06,15,02,11,12.30
2017,06,15,02,12,12.30
2017,06,15,02,13,12.30
2017,06,15,02,14,12.30
2017,06,15,02,15,12.30
2017,06,15,02,16,12.30
2017,06,15,02,17,12.30
2017,06,15,02,18,12.30
2017,06,15,02,19,12.30
2017,06,15,02,20,12.30
2017,06,15,02,21,12.30
2017,06,15,02,22,12.30
2017,06,15,02,23,12.30
2017,06,15,02,24,12.30
2017,06,15,02,25,12.30
2017,06,15,02,26,12.30
2017,06,15,02,27,12.30
2017,06,15,02,28,12.30
2017,06,15,02,29,12.30
2017,06,15,02,30,12.40
2017,06,15,02,31,12.40
2017,06,15,02,32,12.50
2017,06,15,02,33,12.50
2017,06,15,02,34,12.50
2017,06,15,02,35,12.60
2017,06,15,02,36,12.60
2017,06,15,02,37,12.60
2017,06,15,02,38,12.60
2017,06,15,02,39,12.60
2017,06,15,02,40,12.60
2017,06,15,02,41,12.60
2017,06,15,02,42,12.60
2017,06,15,02,43,12.60
2017,06,15,02,44,12.60
2017,06,15,02,45,12.60
2017,06,15,02,46,12.60
2017,06,15,02,47,12.60
2017,06,15,02,48,12.60
2017,06,15,02,49,12.60
2017,06,15,02,50,12.60
2017,06,15,02,51,12.60
2017,06,15,02,52,12.60
2017,06,15,02,53,12.60
2017,06,15,02,54,12.60
2017,06,15,02,55,12.60
2017,06,15,02,56,12.60
2017,06,15,02,57,12.60
2017,06,15,02,58,12.50
2017,06,15,02,59,12.50
2017,06,15,03,00,12.50
2017,06,15,03,01,12.50
2017,06,15,03,02,12.50
2017,06,15,03,03,12.50
2017,06,15,03,04,12.60
2017,06,15,03,05,12.60
2017,06,15,03,06,12.60
2017,06,15,03,07,12.60
2017,06,15,03,08,12.60
2017,06,15,03,09,12.60
2017,06,15,03,10,12.60
2017,06,15,03,11,12.60
2017,06,15,03,12,12.60
2017,06,15,03,13,12.60
2017,06,15,03,14,12.60
2017,06,15,03,15,12.60
2017,06,15,03,16,12.60
2017,06,15,03,17,12.60
2017,06,15,03,18,12.50
2017,06,15,03,19,12.50
2017,06,15,03,20,12.50
2017,06,15,03,21,12.40
2017,06,15,03,22,12.40
2017,06,15,03,23,12.40
2017,06,15,03,24,12.40
2017,06,15,03,25,12.40
2017,06,15,03,26,12.40
2017,06,15,03,27,12.40
2017,06,15,03,28,12.40
2017,06,15,03,29,12.40
2017,06,15,03,30,12.40
2017,06,15,03,31,12.40
2017,06,15,03,32,12.50
2017,06,15,03,33,12.50
2017,06,15,03,34,12.50
2017,06,15,03,35,12.50
2017,06,15,03,36,12.50
2017,06,15,03,37,12.50
2017,06,15,03,38,12.50
2017,06,15,03,39,12.50
2017,06,15,03,40,12.60
2017,06,15,03,41,12.70
2017,06,15,03,42,12.70
2017,06,15,03,43,12.70
2017,06,15,03,44,12.70
2017,06,15,03,45,12.80
2017,06,15,03,46,12.80
2017,06,15,03,47,12.80
2017,06,15,03,48,12.80
2017,06,15,03,49,12.80
2017,06,15,03,50,12.80
2017,06,15,03,51,12.90
2017,06,15,03,52,12.90
2017,06,15,03,53,12.90
2017,06,15,03,54,12.80
2017,06,15,03,55,12.80
2017,06,15,03,56,12.80
2017,06,15,03,57,12.80
2017,06,15,03,58,12.80
2017,06,15,03,59,12.80
2017,06,15,04,00,12.80
2017,06,15,04,01,12.80
2017,06,15,04,02,12.80
2017,06,15,04,03,12.80
2017,06,15,04,04,12.80
2017,06,15,04,05,12.80
2017,06,15,04,06,12.80
2017,06,15,04,07,12.70
2017,06,15,04,08,12.70
2017,06,15,04,09,12.70
2017,06,15,04,10,12.70
2017,06,15,04,11,12.70
2017,06,15,04,12,12.70
2017,06,15,04,13,12.70
2017,06,15,04,14,12.70
2017,06,15,04,15,12.70
2017,06,15,04,16,12.60
2017,06,15,04,17,12.60
2017,06,15,04,18,12.60
2017,06,15,04,19,12.60
2017,06,15,04,20,12.60
2017,06,15,04,21,12.60
2017,06,15,04,22,12.60
2017,06,15,04,23,12.60
2017,06,15,04,24,12.60
2017,06,15,04,25,12.60
2017,06,15,04,26,12.60
2017,06,15,04,27,12.60
2017,06,15,04,28,12.60
2017,06,15,04,29,12.60
2017,06,15,04,30,12.50
2017,06,15,04,31,12.50
2017,06,15,04,32,12.50
2017,06,15,04,33,12.50
2017,06,15,04,34,12.50
2017,06,15,04,35,12.50
2017,06,15,04,36,12.50
2017,06,15,04,37,12.50
2017,06,15,04,38,12.50
2017,06,15,04,39,12.50
2017,06,15,04,40,12.50
2017,06,15,04,41,12.60
2017,06,15,04,42,12.60
2017,06,15,04,43,12.60
2017,06,15,04,44,12.60
2017,06,15,04,45,12.60
2017,06,15,04,46,12.60
2017,06,15,04,47,12.60
2017,06,15,04,48,12.60
2017,06,15,04,49,12.60
2017,06,15,04,50,12.60
2017,06,15,04,51,12.60
2017,06,15,04,52,12.60
2017,06,15,04,53,12.60
2017,06,15,04,54,12.50
2017,06,15,04,55,12.50
2017,06,15,04,56,12.50
2017,06,15,04,57,12.50
2017,06,15,04,58,12.50
2017,06,15,04,59,12.50
2017,06,15,05,00,12.40
2017,06,15,05,01,12.40
2017,06,15,05,02,12.40
2017,06,15,05,03,12.40
2017,06,15,05,04,12.40
2017,06,15,05,05,12.40
2017,06,15,05,06,12.40
2017,06,15,05,07,12.30
2017,06,15,05,08,12.30
2017,06,15,05,09,12.30
2017,06,15,05,10,12.30
2017,06,15,05,11,12.30
2017,06,15,05,12,12.30
2017,06,15,05,13,12.30
2017,06,15,05,14,12.20
2017,06,15,05,15,12.20
2017,06,15,05,16,12.20
2017,06,15,05,17,12.20
2017,06,15,05,18,12.20
2017,06,15,05,19,12.20
2017,06,15,05,20,12.20
2017,06,15,05,21,12.20
2017,06,15,05,22,12.20
2017,06,15,05,23,12.10
2017,06,15,05,24,12.10
2017,06,15,05,25,12.10
2017,06,15,05,26,12.10
2017,06,15,05,27,12.10
2017,06,15,05,28,12.10
2017,06,15,05,29,12.10
2017,06,15,05,30,12.10
2017,06,15,05,31,12.00
2017,06,15,05,32,12.00
2017,06,15,05,33,12.00
2017,06,15,05,34,12.00
2017,06,15,05,35,12.00
2017,06,15,05,36,12.00
2017,06,15,05,37,11.90
2017,06,15,05,38,11.90
2017,06,15,05,39,11.90
2017,06,15,05,40,11.90
2017,06,15,05,41,11.90
2017,06,15,05,42,11.90
2017,06,15,05,43,11.80
2017,06,15,05,44,11.80
2017,06,15,05,45,11.80
2017,06,15,05,46,11.80
2017,06,15,05,47,11.80
2017,06,15,05,48,11.80
2017,06,15,05,49,11.80
2017,06,15,05,50,11.70
2017,06,15,05,51,11.70
2017,06,15,05,52,11.70
2017,06,15,05,53,11.70
2017,06,15,05,54,11.70
2017,06,15,05,55,11.70
2017,06,15,05,56,11.70
2017,06,15,05,57,11.70
2017,06,15,05,58,11.70
2017,06,15,05,59,11.70
2017,06,15,06,00,11.70
2017,06,15,06,01,11.70
2017,06,15,06,02,11.70
2017,06,15,06,03,11.70
2017,06,15,06,04,11.70
2017,06,15,06,05,11.70
2017,06,15,06,06,11.70
2017,06,15,06,07,11.70
2017,06,15,06,08,11.70
2017,06,15,06,09,11.70
2017,06,15,06,10,11.70
2017,06,15,06,11,11.70
2017,06,15,06,12,11.70
2017,06,15,06,13,11.70
2017,06,15,06,14,11.70
2017,06,15,06,15,11.70
2017,06,15,06,16,11.70
2017,06,15,06,17,11.70
2017,06,15,06,18,11.70
2017,06,15,06,19,11.80
2017,06,15,06,20,11.80
2017,06,15,06,21,11.80
2017,06,15,06,22,11.80
2017,06,15,06,23,11.80
2017,06,15,06,24,11.70
2017,06,15,06,25,11.70
2017,06,15,06,26,11.80
2017,06,15,06,27,11.80
2017,06,15,06,28,11.80
2017,06,15,06,29,11.80
2017,06,15,06,30,11.80
2017,06,15,06,31,11.80
2017,06,15,06,32,11.80
2017,06,15,06,33,11.70
2017,06,15,06,34,11.80
2017,06,15,06,35,11.80
2017,06,15,06,36,11.80
2017,06,15,06,37,11.80
2017,06,15,06,38,11.80
2017,06,15,06,39,11.80
2017,06,15,06,40,11.80
2017,06,15,06,41,11.80
2017,06,15,06,42,11.80
2017,06,15,06,43,11.80
2017,06,15,06,44,11.80
2017,06,15,06,45,11.80
2017,06,15,06,46,11.80
2017,06,15,06,47,11.80
2017,06,15,06,48,11.90
2017,06,15,06,49,11.90
2017,06,15,06,50,11.90
2017,06,15,06,51,11.90
2017,06,15,06,52,11.90
2017,06,15,06,53,11.90
2017,06,15,06,54,11.90
2017,06,15,06,55,11.90
2017,06,15,06,56,11.90
2017,06,15,06,57,11.90
2017,06,15,06,58,11.90
2017,06,15,06,59,11.90
2017,06,15,07,00,11.90
2017,06,15,07,01,11.90
2017,06,15,07,02,11.90
2017,06,15,07,03,11.90
2017,06,15,07,04,11.90
2017,06,15,07,05,11.90
2017,06,15,07,06,11.90
2017,06,15,07,07,11.90
2017,06,15,07,08,11.90
2017,06,15,07,09,11.90
2017,06,15,07,10,11.90
2017,06,15,07,11,11.90
2017,06,15,07,12,11.90
2017,06,15,07,13,11.90
2017,06,15,07,14,11.90
2017,06,15,07,15,11.90
2017,06,15,07,16,11.90
2017,06,15,07,17,11.90
2017,06,15,07,18,11.90
2017,06,15,07,19,11.90
2017,06,15,07,20,11.90
2017,06,15,07,21,11.90
2017,06,15,07,22,11.90
2017,06,15,07,23,11.90
2017,06,15,07,24,12.00
2017,06,15,07,25,12.00
2017,06,15,07,26,12.00
2017,06,15,07,27,12.00
2017,06,15,07,28,12.00
2017,06,15,07,29,12.00
2017,06,15,07,30,12.00
2017,06,15,07,31,12.00
2017,06,15,07,32,12.00
2017,06,15,07,33,12.10
2017,06,15,07,34,12.10
2017,06,15,07,35,12.10
2017,06,15,07,36,12.00
2017,06,15,07,37,12.00
2017,06,15,07,38,12.00
2017,06,15,07,39,12.00
2017,06,15,07,40,12.00
2017,06,15,07,41,12.00
2017,06,15,07,42,12.00
2017,06,15,07,43,12.00
2017,06,15,07,44,11.90
2017,06,15,07,45,11.90
2017,06,15,07,46,11.90
2017,06,15,07,47,11.90
2017,06,15,07,48,11.90
2017,06,15,07,49,11.90
2017,06,15,07,50,11.90
2017,06,15,07,51,11.90
2017,06,15,07,52,11.90
2017,06,15,07,53,11.90
2017,06,15,07,54,11.80
2017,06,15,07,55,11.80
2017,06,15,07,56,11.80
2017,06,15,07,57,11.80
2017,06,15,07,58,11.80
2017,06,15,07,59,11.80
2017,06,15,08,00,11.80
2017,06,15,08,01,11.80
2017,06,15,08,02,11.80
2017,06,15,08,03,11.80
2017,06,15,08,04,11.80
2017,06,15,08,05,11.80
2017,06,15,08,06,11.80
2017,06,15,08,07,11.80
2017,06,15,08,08,11.80
2017,06,15,08,09,11.80
2017,06,15,08,10,11.80
2017,06,15,08,11,11.80
2017,06,15,08,12,11.80
2017,06,15,08,13,11.80
2017,06,15,08,14,11.80
2017,06,15,08,15,11.80
2017,06,15,08,16,11.80
2017,06,15,08,17,11.80
2017,06,15,08,18,11.80
2017,06,15,08,19,11.80
2017,06,15,08,20,11.80
2017,06,15,08,21,11.80
2017,06,15,08,22,11.80
2017,06,15,08,23,11.80
2017,06,15,08,24,11.80
2017,06,15,08,25,11.80
2017,06,15,08,26,11.80
2017,06,15,08,27,11.80
2017,06,15,08,28,11.80
2017,06,15,08,29,11.80
2017,06,15,08,30,11.80
2017,06,15,08,31,11.80
2017,06,15,08,32,11.80
2017,06,15,08,33,11.80
2017,06,15,08,34,11.80
2017,06,15,08,35,11.80
2017,06,15,08,36,11.80
2017,06,15,08,37,11.80
2017,06,15,08,38,11.80
2017,06,15,08,39,11.80
2017,06,15,08,40,11.80
2017,06,15,08,41,11.70
2017,06,15,08,42,11.70
2017,06,15,08,43,11.80
2017,06,15,08,44,11.70
2017,06,15,08,45,11.70
2017,06,15,08,46,11.70
2017,06,15,08,47,11.70
2017,06,15,08,48,11.70
2017,06,15,08,49,11.70
2017,06,15,08,50,11.70
2017,06,15,08,51,11.70
2017,06,15,08,52,11.70
2017,06,15,08,53,11.70
2017,06,15,08,54,11.70
2017,06,15,08,55,11.70
2017,06,15,08,56,11.70
2017,06,15,08,57,11.70
2017,06,15,08,58,11.70
2017,06,15,08,59,11.70
2017,06,15,09,00,11.60
2017,06,15,09,01,11.70
2017,06,15,09,02,11.70
2017,06,15,09,03,11.70
2017,06,15,09,04,11.70
2017,06,15,09,05,11.70
2017,06,15,09,06,11.70
2017,06,15,09,07,11.70
2017,06,15,09,08,11.70
2017,06,15,09,09,11.70
2017,06,15,09,10,11.70
2017,06,15,09,11,11.70
2017,06,15,09,12,11.70
2017,06,15,09,13,11.70
2017,06,15,09,14,11.70
2017,06,15,09,15,11.70
2017,06,15,09,16,11.80
2017,06,15,09,17,11.80
2017,06,15,09,18,11.80
2017,06,15,09,19,11.80
2017,06,15,09,20,11.80
2017,06,15,09,21,11.90
2017,06,15,09,22,11.80
2017,06,15,09,23,11.90
2017,06,15,09,24,11.80
2017,06,15,09,25,11.90
2017,06,15,09,26,11.90
2017,06,15,09,27,11.90
2017,06,15,09,28,11.90
2017,06,15,09,29,11.90
2017,06,15,09,30,11.90
2017,06,15,09,31,11.90
2017,06,15,09,32,11.90
2017,06,15,09,33,11.90
2017,06,15,09,34,11.90
2017,06,15,09,35,11.90
2017,06,15,09,36,11.90
2017,06,15,09,37,11.90
2017,06,15,09,38,11.90
2017,06,15,09,39,11.90
2017,06,15,09,40,11.90
2017,06,15,09,41,11.90
2017,06,15,09,42,11.90
2017,06,15,09,43,11.90
2017,06,15,09,44,11.90
2017,06,15,09,45,11.90
2017,06,15,09,46,11.90
2017,06,15,09,47,11.90
2017,06,15,09,48,11.90
2017,06,15,09,49,12.00
2017,06,15,09,50,12.00
2017,06,15,09,51,12.00
2017,06,15,09,52,12.10
2017,06,15,09,53,12.10
2017,06,15,09,54,12.10
2017,06,15,09,55,12.10
2017,06,15,09,56,12.20
2017,06,15,09,57,12.20
2017,06,15,09,58,12.20
2017,06,15,09,59,12.20
2017,06,15,10,00,12.30
2017,06,15,10,01,12.30
2017,06,15,10,02,12.30
2017,06,15,10,03,12.30
2017,06,15,10,04,12.30
2017,06,15,10,05,12.30
2017,06,15,10,06,12.30
2017,06,15,10,07,12.30
2017,06,15,10,08,12.30
2017,06,15,10,09,12.30
2017,06,15,10,10,12.30
2017,06,15,10,11,12.30
2017,06,15,10,12,12.20
2017,06,15,10,13,12.20
2017,06,15,10,14,12.20
2017,06,15,10,15,12.20
2017,06,15,10,16,12.20
2017,06,15,10,17,12.20
2017,06,15,10,18,12.20
2017,06,15,10,19,12.20
2017,06,15,10,20,12.20
2017,06,15,10,21,12.20
2017,06,15,10,22,12.20
2017,06,15,10,23,12.20
2017,06,15,10,24,12.20
2017,06,15,10,25,12.20
2017,06,15,10,26,12.20
2017,06,15,10,27,12.20
2017,06,15,10,28,12.10
2017,06,15,10,29,12.10
2017,06,15,10,30,12.10
2017,06,15,10,31,12.10
2017,06,15,10,32,12.10
2017,06,15,10,33,12.10
2017,06,15,10,34,12.10
2017,06,15,10,35,12.10
2017,06,15,10,36,12.10
2017,06,15,10,37,12.10
2017,06,15,10,38,12.10
2017,06,15,10,39,12.10
2017,06,15,10,40,12.10
2017,06,15,10,41,12.10
2017,06,15,10,42,12.10
2017,06,15,10,43,12.10
2017,06,15,10,44,12.10
2017,06,15,10,45,12.10
2017,06,15,10,46,12.10
2017,06,15,10,47,12.10
2017,06,15,10,48,12.10
2017,06,15,10,49,12.10
2017,06,15,10,50,12.10
2017,06,15,10,51,12.10
2017,06,15,10,52,12.10
2017,06,15,10,53,12.10
2017,06,15,10,54,12.10
2017,06,15,10,55,12.10
2017,06,15,10,56,12.20
2017,06,15,10,57,12.20
2017,06,15,10,58,12.20
2017,06,15,10,59,12.20
2017,06,15,11,00,12.20
2017,06,15,11,01,12.20
2017,06,15,11,02,12.20
2017,06,15,11,03,12.30
2017,06,15,11,04,12.30
2017,06,15,11,05,12.30
2017,06,15,11,06,12.30
2017,06,15,11,07,12.30
2017,06,15,11,08,12.30
2017,06,15,11,09,12.30
2017,06,15,11,10,12.30
2017,06,15,11,11,12.30
2017,06,15,11,12,12.30
2017,06,15,11,13,12.30
2017,06,15,11,14,12.30
2017,06,15,11,15,12.20
2017,06,15,11,16,12.20
2017,06,15,11,17,12.20
2017,06,15,11,18,12.20
2017,06,15,11,19,12.20
2017,06,15,11,20,12.20
2017,06,15,11,21,12.20
2017,06,15,11,22,12.20
2017,06,15,11,23,12.20
2017,06,15,11,24,12.20
2017,06,15,11,25,12.20
2017,06,15,11,26,12.20
2017,06,15,11,27,12.20
2017,06,15,11,28,12.20
2017,06,15,11,29,12.20
2017,06,15,11,30,12.20
2017,06,15,11,31,12.20
2017,06,15,11,32,12.20
2017,06,15,11,33,12.20
2017,06,15,11,34,12.20
2017,06,15,11,35,12.20
2017,06,15,11,36,12.20
2017,06,15,11,37,12.20
2017,06,15,11,38,12.20
2017,06,15,11,39,12.20
2017,06,15,11,40,12.20
2017,06,15,11,41,12.20
2017,06,15,11,42,12.20
2017,06,15,11,43,12.20
2017,06,15,11,44,12.30
2017,06,15,11,45,12.30
2017,06,15,11,46,12.30
2017,06,15,11,47,12.30
2017,06,15,11,48,12.30
2017,06,15,11,49,12.30
2017,06,15,11,50,12.30
2017,06,15,11,51,12.30
2017,06,15,11,52,12.40
2017,06,15,11,53,12.40
2017,06,15,11,54,12.40
2017,06,15,11,55,12.40
2017,06,15,11,56,12.50
2017,06,15,11,57,12.50
2017,06,15,11,58,12.50
2017,06,15,11,59,12.50
2017,06,15,12,00,12.50
2017,06,15,12,01,12.60
2017,06,15,12,02,12.60
2017,06,15,12,03,12.60
2017,06,15,12,04,12.60
2017,06,15,12,05,12.60
2017,06,15,12,06,12.60
2017,06,15,12,07,12.60
2017,06,15,12,08,12.60
2017,06,15,12,09,12.60
2017,06,15,12,10,12.60
2017,06,15,12,11,12.60
2017,06,15,12,12,12.70
2017,06,15,12,13,12.70
2017,06,15,12,14,12.70
2017,06,15,12,15,12.70
2017,06,15,12,16,12.70
2017,06,15,12,17,12.70
2017,06,15,12,18,12.70
2017,06,15,12,19,12.70
2017,06,15,12,20,12.80
2017,06,15,12,21,12.80
2017,06,15,12,22,12.80
2017,06,15,12,23,12.80
2017,06,15,12,24,12.80
2017,06,15,12,25,12.80
2017,06,15,12,26,12.80
2017,06,15,12,27,12.80
2017,06,15,12,28,12.90
2017,06,15,12,29,12.90
2017,06,15,12,30,12.90
2017,06,15,12,31,12.90
2017,06,15,12,32,12.90
2017,06,15,12,33,12.90
2017,06,15,12,34,12.90
2017,06,15,12,35,12.90
2017,06,15,12,36,13.00
2017,06,15,12,37,13.00
2017,06,15,12,38,13.00
2017,06,15,12,39,13.00
2017,06,15,12,40,13.00
2017,06,15,12,41,13.00
2017,06,15,12,42,13.00
2017,06,15,12,43,13.00
2017,06,15,12,44,13.10
2017,06,15,12,45,13.10
2017,06,15,12,46,13.10
2017,06,15,12,47,13.10
2017,06,15,12,48,13.10
2017,06,15,12,49,13.10
2017,06,15,12,50,13.10
2017,06,15,12,51,13.20
2017,06,15,12,52,13.20
2017,06,15,12,53,13.20
2017,06,15,12,54,13.20
2017,06,15,12,55,13.20
2017,06,15,12,56,13.20
2017,06,15,12,57,13.20
2017,06,15,12,58,13.20
2017,06,15,12,59,13.20
2017,06,15,13,00,13.20
2017,06,15,13,01,13.20
2017,06,15,13,02,13.20
2017,06,15,13,03,13.20
2017,06,15,13,04,13.20
2017,06,15,13,05,13.20
2017,06,15,13,06,13.30
2017,06,15,13,07,13.30
2017,06,15,13,08,13.30
2017,06,15,13,09,13.30
2017,06,15,13,10,13.30
2017,06,15,13,11,13.30
2017,06,15,13,12,13.40
2017,06,15,13,13,13.40
2017,06,15,13,14,13.40
2017,06,15,13,15,13.40
2017,06,15,13,16,13.40
2017,06,15,13,17,13.40
2017,06,15,13,18,13.40
2017,06,15,13,19,13.40
2017,06,15,13,20,13.40
2017,06,15,13,21,13.40
2017,06,15,13,22,13.40
2017,06,15,13,23,13.40
2017,06,15,13,24,13.40
2017,06,15,13,25,13.40
2017,06,15,13,26,13.40
2017,06,15,13,27,13.50
2017,06,15,13,28,13.50
2017,06,15,13,29,13.50
2017,06,15,13,30,13.50
2017,06,15,13,31,13.50
2017,06,15,13,32,13.50
2017,06,15,13,33,13.50
2017,06,15,13,34,13.60
2017,06,15,13,35,13.60
2017,06,15,13,36,13.70
2017,06,15,13,37,13.70
2017,06,15,13,38,13.70
2017,06,15,13,39,13.70
2017,06,15,13,40,13.70
2017,06,15,13,41,13.80
2017,06,15,14,54,13.90
2017,06,15,14,55,14.00
2017,06,15,14,56,14.00
2017,06,15,14,57,14.00
2017,06,15,14,58,14.00
2017,06,15,14,59,14.10
2017,06,15,15,00,14.10
2017,06,15,15,01,14.10
2017,06,15,15,02,14.10
2017,06,15,15,03,14.10
2017,06,15,15,04,14.10
2017,06,15,15,05,14.10
2017,06,15,15,06,14.10
2017,06,15,15,07,14.10
2017,06,15,15,08,14.20
2017,06,15,15,09,14.10
2017,06,15,15,10,14.10
2017,06,15,15,11,14.10
2017,06,15,15,12,14.10
2017,06,15,15,13,14.10
2017,06,15,15,14,14.10
2017,06,15,15,15,14.10
2017,06,15,15,16,14.10
2017,06,15,15,17,14.10
2017,06,15,15,18,14.10
2017,06,15,15,19,14.00
2017,06,15,15,20,14.00
2017,06,15,15,21,14.00
2017,06,15,15,22,14.00
2017,06,15,15,23,14.00
2017,06,15,15,24,13.90
2017,06,15,15,25,13.90
2017,06,15,15,26,13.90
2017,06,15,15,27,13.90
2017,06,15,15,28,13.90
2017,06,15,15,29,13.90
2017,06,15,15,30,13.90
2017,06,15,15,31,13.90
2017,06,15,15,32,13.90
2017,06,15,15,33,13.90
2017,06,15,15,34,13.90
2017,06,15,15,35,13.90
2017,06,15,15,36,13.90
2017,06,15,15,37,13.90
2017,06,15,15,38,14.00
2017,06,15,15,39,14.00
2017,06,15,15,40,14.00
2017,06,15,15,41,14.00
2017,06,15,15,42,14.00
2017,06,15,15,43,14.00
2017,06,15,15,44,14.00
2017,06,15,15,45,14.00
2017,06,15,15,46,14.10
2017,06,15,15,47,14.10
2017,06,15,15,48,14.10
2017,06,15,15,49,14.10
2017,06,15,15,50,14.10
2017,06,15,15,51,14.10
2017,06,15,15,52,14.20
2017,06,15,15,53,14.10
2017,06,15,15,54,14.10
2017,06,15,15,55,14.10
2017,06,15,15,56,14.10
2017,06,15,15,57,14.10
2017,06,15,15,58,14.10
2017,06,15,15,59,14.10
2017,06,15,16,00,14.10
2017,06,15,16,01,14.10
2017,06,15,16,02,14.10
2017,06,15,16,03,14.10
2017,06,15,16,04,14.10
2017,06,15,16,05,14.10
2017,06,15,16,06,14.10
2017,06,15,16,07,14.10
2017,06,15,16,08,14.10
2017,06,15,16,09,14.10
2017,06,15,16,10,14.00
2017,06,15,16,11,14.00
2017,06,15,16,12,14.00
2017,06,15,16,13,14.10
2017,06,15,16,14,14.10
2017,06,15,16,15,14.00
2017,06,15,16,16,14.00
2017,06,15,16,17,14.10
2017,06,15,16,18,14.00
2017,06,15,16,19,14.00
2017,06,15,16,20,14.10
2017,06,15,16,21,14.00
2017,06,15,16,22,14.00
2017,06,15,16,23,14.10
2017,06,15,16,24,14.00
2017,06,15,16,25,14.00
2017,06,15,16,26,14.00
2017,06,15,16,27,14.00
2017,06,15,16,28,14.00
2017,06,15,16,29,14.00
2017,06,15,16,30,14.00
2017,06,15,16,31,14.00
2017,06,15,16,32,13.90
2017,06,15,16,33,13.90
2017,06,15,16,34,13.90
2017,06,15,16,35,13.90
2017,06,15,16,36,13.90
2017,06,15,16,37,13.90
2017,06,15,16,38,13.90
2017,06,15,16,39,13.90
2017,06,15,16,40,13.90
2017,06,15,16,41,13.90
2017,06,15,16,42,13.90
2017,06,15,16,43,13.90
2017,06,15,16,44,13.90
2017,06,15,16,45,13.90
2017,06,15,16,46,13.90
2017,06,15,16,47,13.80
2017,06,15,16,48,13.80
2017,06,15,16,49,13.80
2017,06,15,16,50,13.80
2017,06,15,16,51,13.80
2017,06,15,16,52,13.80
2017,06,15,16,53,13.80
2017,06,15,16,54,13.80
2017,06,15,16,55,13.80
2017,06,15,16,56,13.80
2017,06,15,16,57,13.80
2017,06,15,16,58,13.80
2017,06,15,16,59,13.80
2017,06,15,17,00,13.90
2017,06,15,17,01,13.90
2017,06,15,17,02,13.90
2017,06,15,17,03,13.90
2017,06,15,17,04,13.90
2017,06,15,17,05,13.90
2017,06,15,17,06,13.90
2017,06,15,17,07,13.90
2017,06,15,17,08,13.90
2017,06,15,17,09,13.90
2017,06,15,17,10,13.90
2017,06,15,17,11,13.90
2017,06,15,17,12,13.90
2017,06,15,17,13,13.90
2017,06,15,17,14,13.90
2017,06,15,17,15,13.90
2017,06,15,17,16,13.90
2017,06,15,17,17,13.90
2017,06,15,17,18,13.90
2017,06,15,17,19,13.90
2017,06,15,17,20,13.90
2017,06,15,17,21,13.90
2017,06,15,17,22,13.90
2017,06,15,17,23,13.90
2017,06,15,17,24,13.90
2017,06,15,17,25,13.90
2017,06,15,17,26,13.90
2017,06,15,17,27,13.90
2017,06,15,17,28,13.90
2017,06,15,17,29,13.90
2017,06,15,17,30,13.90
2017,06,15,17,31,13.90
2017,06,15,17,32,13.90
2017,06,15,17,33,13.90
2017,06,15,17,34,13.90
2017,06,15,17,35,13.90
2017,06,15,17,36,13.90
2017,06,15,17,37,13.90
2017,06,15,17,38,13.90
2017,06,15,17,39,13.90
2017,06,15,17,40,13.90
2017,06,15,17,41,13.90
2017,06,15,17,42,13.90
2017,06,15,17,43,13.90
2017,06,15,17,44,13.90
2017,06,15,17,45,13.90
2017,06,15,17,46,13.90
2017,06,15,17,47,13.90
2017,06,15,17,48,13.90
2017,06,15,17,49,13.90
2017,06,15,17,50,13.80
2017,06,15,17,51,13.90
2017,06,15,17,52,13.90
2017,06,15,17,53,13.90
2017,06,15,17,54,13.90
2017,06,15,17,55,13.90
2017,06,15,17,56,13.90
2017,06,15,17,57,13.90
2017,06,15,17,58,13.90
2017,06,15,17,59,13.90
2017,06,15,18,00,13.90
2017,06,15,18,01,13.90
2017,06,15,18,02,13.90
2017,06,15,18,03,13.90
2017,06,15,18,04,13.90
2017,06,15,18,05,13.90
2017,06,15,18,06,13.90
2017,06,15,18,07,13.90
2017,06,15,18,08,13.90
2017,06,15,18,09,13.90
2017,06,15,18,10,13.90
2017,06,15,18,11,13.90
2017,06,15,18,12,13.90
2017,06,15,18,13,13.90
2017,06,15,18,14,13.90
2017,06,15,18,15,13.90
2017,06,15,18,16,13.90
2017,06,15,18,17,13.90
2017,06,15,18,18,13.90
2017,06,15,18,19,13.90
2017,06,15,18,20,13.90
2017,06,15,18,21,13.90
2017,06,15,18,22,13.90
2017,06,15,18,23,13.90
2017,06,15,18,24,13.90
2017,06,15,18,25,13.90
2017,06,15,18,26,13.90
2017,06,15,18,27,13.90
2017,06,15,18,28,13.80
2017,06,15,18,29,13.80
2017,06,15,18,30,13.90
2017,06,15,18,31,13.90